Regional Weather Roundup
Issued by NWS Goodland, KS

Home | Current Version | Previous Version | Text Only | Print | Product List | Glossary On
Versions: 1 2 3 4 5 6 7 8 9 10 11 12 13 14 15 16 17 18 19 20 21 22 23 24 25 26 27 28 29 30 31 32 33 34 35 36 37 38 39 40 41 42 43 44 45 46 47 48 49 50
000
ASUS43 KGLD 300308
RWRGLD

GOODLAND FORECAST AREA HOURLY WEATHER ROUNDUP
NATIONAL WEATHER SERVICE GOODLAND KS
900 PM MDT MON JUN 29 2015

...OFFICIAL OBSERVATIONS...

CITY           SKY/WX    TMP DP  RH WIND       PRES   REMARKS
GOODLAND KS    CLEAR     75  54  47 SW10      30.09S
HILL CITY KS   CLEAR     80  52  37 VRB5      30.01R
IMPERIAL NEB   CLEAR     75  62  64 SE3       30.05R
MCCOOK NEB     CLEAR     83  58  42 S3        30.00S
AKRON CO       PTCLDY    74  57  55 SE5       30.16R
BURLINGTON CO  CLEAR     71  54  54 SW9       30.14S
LIMON CO       PTCLDY    67  61  81 CALM      30.23R
$$

...UNOFFICIAL OBSERVATIONS...

CITY           SKY/WX    TMP DP  RH WIND       PRES   REMARKS
COLBY KS       CLEAR     72  64  78 W9        30.07S
GOVE KS          N/A     77  32  19 MISG        N/A
NORTON KS      CLEAR     79  55  44 CALM      30.00
SHARON SPRINGS   N/A     72  56  57 S5          N/A
KIT CARSON CO    N/A     73  55  53 MISG        N/A
YUMA CO          N/A     76  54  46 CALM        N/A
$$


USA.gov is the U.S. government's official web portal to all federal, state and local government web resources and services.